Regional Weather Roundup
Issued by NWS

Home | Current Version | Previous Version | Text Only | Print | Product List | Glossary On
Versions: 1 2 3 4 5 6 7 8 9 10 11 12 13 14 15 16 17 18 19 20 21 22 23 24 25 26 27 28 29 30 31 32 33 34 35 36 37 38 39 40 41 42 43 44 45 46 47 48 49 50
000
ASUS44 KEWX 261111
RWRTX
SOUTH TEXAS REGIONAL WEATHER ROUNDUP
NATIONAL WEATHER SERVICE AUSTIN/SAN ANTONIO TX
600 AM CDT THU MAY 26 2016

NOTE: "FAIR" INDICATED FEW OR NO CLOUDS BELOW 12,000 FEET WITH NO
SIGNIFICANT WEATHER AND/OR OBSTRUCTIONS TO VISIBILITY.

* - THESE STATIONS ARE NOT NWS OR FAA STATIONS...AND ARE NOT SUBJECT
    TO NWS AND FAA QUALITY CONTROL.

TXZ171-172-183>190-261200-
TEXAS HILL COUNTRY AND EDWARDS PLATEAU

CITY           SKY/WX    TMP DP  RH WIND       PRES   REMARKS
JUNCTION       CLOUDY    77  72  84 S13       29.91F
*LLANO         CLOUDY    79  77  94 SE7       29.96S
BURNET         CLOUDY    75  74  96 S6        29.98R FOG
*HORSESHOE BAY CLOUDY    78  74  89 S6        29.95R
*KERRVILLE     CLOUDY    76  75  95 S9        29.96S
*FREDERICKSBRG CLOUDY    75  72  89 S7        29.95S
*ROCKSPRINGS     N/A     73  72  94 SE15G22   29.97S
*BOERNE STAGE  CLOUDY    73  72  94 S13G18    29.97R
*CASTROVILLE   CLOUDY    78  76  94 S6        29.95S
HONDO          CLOUDY    77  76  96 S9        29.95S
*UVALDE        CLOUDY    76  74  95 SE12      29.91F
DEL RIO        MOCLDY    77  68  73 E8        29.85S
LAUGHLIN AFB   MOCLDY    76  68  74 SE13      29.86F
CARRIZO SPRGS  CLOUDY    77  73  88 SE10G17   29.88F
*EAGLE PASS    SUNNY     75  64  69 SE8       29.88S
$$

TXZ173-191>194-202-209-217>225-228-261200-
CENTRAL AND SOUTH CENTRAL TEXAS

CITY           SKY/WX    TMP DP  RH WIND       PRES   REMARKS
GEORGETOWN     CLOUDY    79  72  78 S6        29.94S
AUSTIN/BERGSTM LGT RAIN  78  76  93 S12       29.93S
AUSTIN/MABRY   CLOUDY    78  75  90 VRB6      29.95R
*AUSTIN/EXEC   CLOUDY    77  75  94 S6        29.95F
*LAGO VISTA    CLOUDY    76  74  95 SE6       29.97S FOG
SAN MARCOS     CLOUDY    79  75  89 S8        29.95S
NEW BRAUNFELS  CLOUDY    79  75  87 S12       29.93R
RANDOLPH AFB   CLOUDY    78  78 100 S10       29.94S
PT SAN ANTONIO CLOUDY    77  75  93 S7        29.93R
SAN ANTONIO    CLOUDY    78  75  90 S12       29.94S
STINSON FIELD  CLOUDY    79  75  87 S6        29.92R
*PLEASANTON    CLOUDY    78  75  92 SE5       29.93S
*LA GRANGE       N/A     79  77  93 S6        29.93S FOG
*GIDDINGS      CLOUDY    77  75  91 S6        29.99S
*GONZALES      CLOUDY    79  79  99 CALM      29.94R
$$

TXZ163>164-176>182-195>201-210>213-226-227-235-261200-
SOUTHEAST TEXAS

CITY           SKY/WX    TMP DP  RH WIND       PRES   REMARKS
COLLEGE STN    CLOUDY    78  76  93 SE8       29.96S
*BRYAN         CLOUDY    77  77 100 S6        29.98R
*CALDWELL      CLOUDY    77  77 100 SE8       29.98S
*CROCKETT      CLOUDY    75  75 100 S3        30.01S
*BRENHAM       CLOUDY    79  77  94 SE7       29.96S
HUNTSVILLE     MOCLDY    78  74  87 CALM      29.98R
CONROE         CLOUDY    76  74  93 E3        29.99R
HOUSTON BUSH   CLOUDY    78  75  90 S7        29.98R
HOUSTON HOBBY  MOCLDY    80  76  87 SE8       29.97S
*HOUSTON SW AP CLOUDY    78  76  94 SE3       29.98S
PEARLAND       CLOUDY    81  77  88 S7        29.99R
HOUSTON HOOKS  CLOUDY    80  76  87 VRB6      29.97S
ELLINGTON FLD  CLOUDY    81  73  78 SE7       29.99S
SUGAR LAND     CLOUDY    78  75  90 S7        29.97S
*HOUSTON EXEC    N/A     77  77 100 S7        29.98S
*CLEVELAND MUN CLOUDY    77  77  99 CALM      29.99F FOG
*WHARTON       CLOUDY    79  77  94 SE5       29.97S
*COLUMBUS      CLOUDY    78  77  96 SE6       29.95S
*EAGLE LAKE    CLOUDY    78  77  96 S8        29.95F
$$

TXZ214>216-236>238-261200-
THE UPPER TEXAS COAST

CITY           SKY/WX    TMP DP  RH WIND       PRES   REMARKS
*ORANGE        CLOUDY    77  74  90 S3        30.03S
PORT ARTHUR    CLOUDY    78  75  90 SE8       30.01R
GALVESTON      CLOUDY    80  78  94 SE14      29.99S
ANGLETON       CLOUDY    81  77  88 S15       29.97S
*BAY CITY      CLOUDY    80  78  93 S7        29.97R
PALACIOS       CLOUDY    81  77  88 S12       29.95S
$$

TXZ229>234-239>247-261200-
TEXAS COASTAL BEND AND RIO GRANDE PLAINS

CITY           SKY/WX    TMP DP  RH WIND       PRES   REMARKS
VICTORIA       CLOUDY    80  77  90 S8        29.94S
*BEEVILLE      MOCLDY    76  76 100 SE3       29.93S FOG
ROCKPORT       CLOUDY    82  77  84 S9G17     29.93R HX  90
*PORT ARANSAS  CLOUDY    81  80  97 S16G24    29.92R HX  90
*PORT LAVACA   CLOUDY    79  78  96 SE7       29.94S
*INGLESIDE     CLOUDY    59  56  91 S7        29.93R
CORPUS CHRISTI CLOUDY    81  78  91 S6        29.93R
CORPUS NAS     CLOUDY    82  80  94 S17G24    29.93R HX  94
*ROBSTOWN      CLOUDY    81  79  94 SE6       29.94R FOG     HX  90
ALICE          CLOUDY    79  77  94 VRB3      29.93R
KINGSVILLE NAS CLOUDY    80  80 100 SW6       29.94R
COTULLA        CLOUDY    79  76  90 SE5       29.91F
*FAITH RANCH     N/A    N/A N/A N/A MISG        N/A
LAREDO         CLOUDY    79  75  89 SE9       29.92F
$$

TXZ248>255-261200-
DEEP SOUTH TEXAS

CITY           SKY/WX    TMP DP  RH WIND       PRES   REMARKS
BROWNSVILLE    CLOUDY    80  78  94 S9        29.94R
PORT ISABEL    CLOUDY    81  79  94 S6        29.94R HX  90
*SOUTH PADRE     N/A     81  79  94 S10       29.94R
HARLINGEN      CLOUDY    82  78  88 S3        29.94R HX  91
*HEBBRONVILLE  CLOUDY    75  73  93 CALM      29.95S
MCALLEN        CLOUDY    80  76  87 SE6       29.94R FOG
*WESLACO       CLOUDY    80  77  90 S6        29.94R FOG
FALFURRIAS     CLOUDY    78  73  84 S3        29.93R
EDINBURG       CLOUDY    79  74  86 SE5       29.94R
*ZAPATA        CLOUDY    77  75  96 S3        29.92S
$$

TXZ213>215-236>238-242>244-246-247-251-254-255-261200-
CMAN STATIONS

STATION/POSITION TIME  TEMP    WIND        PRES    WAVE
                       AIR SEA DIR/SP/G            HT/PER
                 (UTC) (F)     (DEG/KT/KT) (MB)    (FT/S)
SABINE PASS      1000   79 81  170/  9/ 11 1017.3
SEA RIM ST PARK  1100   79     160/ 11/ 15 1016.6
NORTH JETTY/GLS  1000   81 81                N/A
EAGLE POINT      1000   81 76  180/ 15/ 18 1015.1
MORGANS POINT    1000   81 76  150/ 11/ 14 1015.2
MISSION/ARANSAS  1000   82                 1013.0
PORT O`CONNOR    1000          160/ 15/ 19   N/A
PORT ARANSAS     1100   81 83  150/ 18/ 20 1013.6
MALAQUITE BEACH  1000   82 83  130/ 15/ 17 1012.8
BAFFIN BAY       1000   81 83  160/ 16/ 19 1013.0
PORT ISABEL      1000   81 82  150/ 13/ 17 1012.5
$$

GMZ080-GMZ150>470-261200-
OFFSHORE BUOY REPORTS

STATION/POSITION TIME  TEMP    WIND        PRES    WAVE
                       AIR SEA DIR/SP/G            HT/PER
                 (UTC) (F)     (DEG/KT/KT) (MB)    (FT/S)
20 E GALVESTON   1050   80 80  170/ 16/ 19 1014.6    4/ 6
90 E PT ARANSAS  1050   81 81  140/ 17/ 19 1014.0    5/ 6
35 NE PT MANSFLD 1050   81 81  150/ 16/ 17 1013.1    6/ 7
200 E PT ISABEL  1050                        N/A     4/ 7
$$



USA.gov is the U.S. government's official web portal to all federal, state and local government web resources and services.